CW0608 Weather Reports


Display with metric or nautical units.
time (UTC)temp
F
wind
direction
speed
MPH
gust
MPH
rain 1hr
in
rain 24hr
in
rain mn
in
humidity
%
barometer
mb
20260505003805 65 159 2.0 9.0 0.00 0.00 0.00 57 1011.0
20260505003304 65 165 3.0 9.0 0.00 0.00 0.00 57 1011.0
20260505002304 66 176 3.0 9.0 0.00 0.00 0.00 54 1011.0
20260504235803 67 150 5.0 12.0 0.00 0.00 0.00 50 1010.9
20260504235305 67 157 6.0 12.0 0.00 0.00 0.00 49 1010.9
20260504234805 67 154 4.0 10.0 0.00 0.00 0.00 49 1010.9
20260504232304 69 159 4.0 16.0 0.00 0.00 0.00 49 1011.0
20260504231803 69 162 7.0 16.0 0.00 0.00 0.00 47 1011.0
20260504231304 69 159 3.0 12.0 0.00 0.00 0.00 47 1011.0
20260504224804 70 156 7.0 17.0 0.00 0.00 0.00 47 1010.9
20260504224305 70 159 4.0 14.0 0.00 0.00 0.00 47 1010.9
20260504223803 70 151 4.0 14.0 0.00 0.00 0.00 45 1010.8
20260504222803 71 153 4.0 13.0 0.00 0.00 0.00 45 1010.9
20260504222305 71 163 4.0 17.0 0.00 0.00 0.00 45 1010.8
20260504220804 72 163 6.0 14.0 0.00 0.00 0.00 45 1010.8
20260504214304 73 148 5.0 14.0 0.00 0.00 0.00 43 1010.9
20260504213805 73 142 5.0 14.0 0.00 0.00 0.00 42 1010.9
20260504213304 73 126 7.0 14.0 0.00 0.00 0.00 41 1010.9
20260504211304 74 150 4.0 13.0 0.00 0.00 0.00 43 1010.8
20260504205304 74 156 7.0 16.0 0.00 0.00 0.00 41 1010.8
20260504201805 73 91 3.0 12.0 0.00 0.00 0.00 44 1011.3
20260504200804 73 125 5.0 16.0 0.00 0.00 0.00 42 1011.3
20260504195804 73 136 4.0 12.0 0.00 0.00 0.00 42 1011.8
20260504191804 73 155 4.0 12.0 0.00 0.00 0.00 43 1012.4
20260504191304 74 105 5.0 10.0 0.00 0.00 0.00 41 1012.5
20260504185805 74 133 4.0 12.0 0.00 0.00 0.00 44 1012.7
20260504183804 74 151 6.0 14.0 0.00 0.00 0.00 39 1012.8
20260504181804 73 134 6.0 15.0 0.00 0.00 0.00 40 1012.8
20260504181304 73 155 9.0 15.0 0.00 0.00 0.00 40 1012.9
20260504175804 73 218 5.0 16.0 0.00 0.00 0.00 41 1013.0
20260504174304 73 168 5.0 10.0 0.00 0.00 0.00 37 1013.2
20260504173803 73 213 5.0 10.0 0.00 0.00 0.00 42 1013.4
20260504172304 72 159 3.0 10.0 0.00 0.00 0.00 42 1013.7
20260504170803 71 179 2.0 13.0 0.00 0.00 0.00 39 1013.7
20260504150303 65 195 5.0 9.0 0.00 0.00 0.00 45 1014.9
20260504130803 57 185 5.0 8.0 0.00 0.00 0.00 57 1015.7
20260504130303 57 200 2.0 7.0 0.00 0.00 0.00 58 1015.7
20260504120304 54 191 3.0 5.0 0.00 0.00 0.00 66 1015.9
20260504081805 41 241 0.0 0.0 0.00 0.00 0.00 89 1016.4
20260504080806 41 241 0.0 0.0 0.00 0.00 0.00 89 1016.5
20260504050306 41 255 0.0 0.0 0.00 0.00 0.00 86 1016.5
20260504045805 41 255 0.0 2.0 0.00 0.00 0.00 86 1016.6
20260504044805 41 255 1.0 2.0 0.00 0.00 0.00 86 1016.7
20260504043805 41 255 0.0 1.0 0.00 0.00 0.00 84 1016.7
20260504043305 41 255 1.0 2.0 0.00 0.00 0.00 84 1016.7
20260504042805 41 255 0.0 3.0 0.00 0.00 0.00 84 1016.6
20260504041305 41 255 1.0 3.0 0.00 0.00 0.00 85 1016.4
20260504040814 41 255 1.0 3.0 0.00 0.00 0.00 84 1016.3
20260504040306 42 255 1.0 2.0 0.00 0.00 0.00 83 1016.3
20260504035805 42 255 1.0 3.0 0.00 0.00 0.00 81 1016.5
20260504035305 42 255 1.0 3.0 0.00 0.00 0.00 80 1016.5
20260504034805 43 255 0.0 2.0 0.00 0.00 0.00 79 1016.4
20260504034305 43 255 0.0 3.0 0.00 0.00 0.00 79 1016.4
20260504031804 43 255 1.0 2.0 0.00 0.00 0.00 79 1016.2
20260504030804 43 255 0.0 1.0 0.00 0.00 0.00 80 1016.1
20260504025805 44 255 0.0 2.0 0.00 0.00 0.00 76 1016.2
20260504022305 45 255 1.0 2.0 0.00 0.00 0.00 71 1016.0
20260504015806 47 255 0.0 2.0 0.00 0.00 0.00 68 1016.1
20260504013806 48 255 2.0 2.0 0.00 0.00 0.00 66 1016.1
20260504013305 48 255 0.0 0.0 0.00 0.00 0.00 65 1016.0
20260504011805 48 255 0.0 0.0 0.00 0.00 0.00 64 1015.9
20260504011305 49 255 0.0 0.0 0.00 0.00 0.00 64 1015.9
20260504010805 49 255 0.0 0.0 0.00 0.00 0.00 62 1015.8
20260504004805 50 255 0.0 0.0 0.00 0.00 0.00 60 1015.7
20260504004305 50 255 0.0 0.0 0.00 0.00 0.00 58 1015.6